METEOR 3M

导读

METEOR 3M是独联体(CIS)继承自苏联航天体系下,由俄罗斯研制的第三代改进型极轨气象卫星,于2001年12月10日成功发射。它运行在1012km高的近圆太阳同步极轨道,配备了成像光谱、气溶胶探测等多种载荷,设计寿命3年,实际因供电故障于2006年停止工作,超额服役近一年,仅发射该星,后续任务被新一代Meteor-M系列替代。

基本信息
目录编号:
27001
目录名称:
METEOR 3M
国际标识:
2001-056A
轨道中心:
EARTH
卫星名称:
METEOR 3M
卫星全名:
--
卫星状态:
在轨 (已飞行9042 天)
发射日期:
2001-12-10 UTC
国别 :
俄罗斯(独联体) (CIS)
星等 :
--
该卫星已列入 空间交会检测服务 Space Conjunction Data Service (SCDS) ,当前飞行风险评估等级: 无高风险
轨道信息
数据来源 国际轨道数据 AOE轨道数据
星历时间 2026-09-11T20:07:00+0800
14小时前
查看轨道信息
2026-09-09T23:00:00+0800
2天前
查看轨道信息
半长轴 7381.131km 7381.129km
偏心率 0.0013401 0.0013444
轨道倾角 99.824° 99.824°
近地点辐角 340.834° 345.796°
升交点赤经 82.540° 80.625°
平近点角 73.736° 168.542°
近地点 993.102km 993.068km
远地点 1012.886km 1012.916km
周期 105.183分钟 105.183分钟
每日圈数 13.690473 13.690479
详细信息
使用方式:
暂无
2D轨道图
3D轨道图
轨道高度分析图
轨道倾角分析图
轨道综合分析图
查看轨道综合分析图
与全量物体交会距离演化趋势
与全量物体交会风险概率演化趋势